Wind_Speed
33 34 35 35 34 33 33 32 30 27 26 23 20 19 17 17 17 17 16 15 15 14 13 12 12 12 12 12 12 12 12 12 13 14 14 15 15 16 16 17 17 17 17 18
33 34 35 36 35 35 34 33 31 28 27 25 23 21 19 19 18 18 17 17 16 15 14 13 13 13 14 14 14 13 13 13 14 15 16 16 16 17 18 18 18 18 18 19
34 33 34 36 34 34 33 32 31 29 27 25 23 22 21 20 19 19 19 19 17 16 16 15 15 15 16 16 15 14 15 15 16 16 17 18 18 18 18 19 19 19 20 20
32 32 35 33 32 32 32 32 31 29 27 26 24 23 23 22 21 21 20 19 19 18 18 18 18 17 17 16 16 16 16 17 17 18 18 19 19 19 20 20 20 20 20 21
33 33 34 33 32 32 32 33 32 30 29 27 26 25 24 23 23 22 21 21 20 20 20 20 20 20 20 20 18 18 18 19 19 20 20 20 19 19 20 20 20 20 21 22
32 33 35 33 32 32 33 33 32 31 30 28 28 27 24 24 23 23 23 22 21 21 21 21 22 22 22 21 20 20 20 20 21 21 20 20 20 20 20 21 21 21 22 23
31 32 33 32 32 32 33 32 31 31 30 30 29 26 25 25 24 24 24 23 23 23 23 22 23 23 23 23 23 23 22 22 22 22 21 22 22 22 22 22 22 23 24 24
31 33 32 30 31 32 32 32 32 32 31 30 29 28 27 26 26 26 25 25 25 25 25 24 25 25 25 25 25 25 24 24 24 24 24 24 24 24 24 24 24 25 25 25
30 31 30 31 31 31 31 32 32 32 32 31 31 30 29 28 27 26 27 27 27 27 27 27 27 27 28 28 27 25 25 26 26 27 27 27 27 26 26 26 26 26 26 26
30 29 29 30 30 30 30 31 31 31 32 32 31 30 30 29 29 28 28 28 29 29 29 30 30 30 30 30 29 27 27 28 29 29 28 28 28 28 28 28 27 27 27 27
31 30 29 29 29 29 28 28 29 29 29 30 30 30 30 30 30 30 31 31 31 31 32 32 32 31 31 30 30 29 29 30 30 30 29 29 29 29 29 29 29 28 28 28
31 30 31 31 30 30 29 29 29 30 29 30 30 31 31 31 31 32 33 33 33 33 32 33 32 32 32 31 31 31 31 31 31 31 30 30 30 30 30 30 30 29 29 29
30 31 31 30 30 30 30 29 30 31 31 30 30 31 31 31 32 31 31 31 31 31 32 32 32 32 32 32 32 32 32 32 31 31 30 30 30 30 30 30 30 30 29 29
29 30 31 31 31 31 30 29 30 30 30 31 31 31 32 33 32 31 31 31 31 32 32 32 33 32 32 33 33 33 33 32 32 31 31 31 31 31 31 31 30 30 30 29
28 29 30 30 31 30 29 29 30 30 30 30 31 32 32 32 33 32 32 32 33 33 33 33 33 32 32 32 32 32 31 31 31 32 32 31 31 31 30 30 31 31 30 29
26 27 28 29 29 30 30 30 30 30 31 31 31 31 31 31 31 31 31 33 33 33 32 32 32 32 32 32 32 31 30 31 31 30 30 30 30 29 30 30 30 30 30 29
24 24 25 27 28 28 29 30 30 29 29 29 30 30 31 31 31 30 31 32 32 32 32 32 31 30 30 30 30 30 30 30 29 28 28 29 29 30 30 30 30 30 29 29
22 23 24 25 26 26 26 27 28 28 28 28 29 29 30 30 30 30 31 31 31 31 30 29 28 28 28 28 28 29 28 28 29 29 29 29 29 29 30 30 30 29 29 29
20 21 22 24 25 25 25 25 26 26 27 27 27 28 29 29 30 30 30 31 31 31 30 29 28 29 29 28 28 29 29 29 29 28 28 29 29 29 29 29 29 29 29 30
19 20 21 22 22 23 23 24 24 25 25 26 27 27 27 27 28 28 30 31 31 30 30 29 29 30 31 31 30 29 29 29 29 29 29 29 29 29 29 29 30 30 30 31
20 20 21 21 21 22 23 24 24 25 26 27 27 27 26 26 26 26 27 28 28 29 29 29 29 29 29 29 28 28 29 29 29 30 30 30 30 30 30 31 31 31 31 32
20 20 20 20 20 21 23 23 24 25 25 26 26 26 26 26 26 26 26 27 27 28 28 27 27 27 28 27 27 28 28 28 29 30 30 30 30 31 31 31 32 32 32 32
19 19 20 20 21 21 22 23 24 24 24 23 23 24 25 24 25 26 26 27 26 26 27 27 26 26 26 27 27 28 28 29 29 30 29 30 30 30 31 31 31 32 32 32
19 20 21 21 21 22 22 23 23 24 24 23 24 24 24 25 26 26 27 27 27 27 27 26 25 26 27 27 27 28 28 29 29 29 29 30 30 30 30 31 31 31 31 31
18 19 20 20 20 21 21 22 22 22 22 22 23 23 24 24 25 26 27 26 26 25 25 25 26 27 27 26 27 27 27 28 28 29 29 29 30 29 29 30 29 29 29 29
17 17 18 18 19 19 20 20 20 20 21 22 22 23 24 24 25 25 26 26 26 26 26 26 26 26 27 27 27 28 28 28 28 28 28 28 29 29 29 28 28 28 28 28
16 16 16 17 18 18 19 20 20 21 21 21 22 22 23 24 24 25 25 25 25 24 25 25 26 26 26 26 27 27 27 28 28 28 28 28 28 27 27 27 28 28 28 27
Wind_Direction
227 227 228 230 233 235 237 240 244 249 252 254 256 257 262 264 261 263 264 266 269 269 268 272 274 273 276 279 282 284 285 289 294 297 300 303 305 307 309 310 312 312 312 312
227 228 230 232 233 236 238 240 243 247 249 253 254 256 259 261 262 263 264 266 269 266 266 273 274 275 277 278 278 281 287 290 292 296 298 299 299 301 303 305 308 309 309 308
229 229 231 234 234 235 237 239 242 246 249 252 254 257 258 260 259 259 262 264 265 266 266 270 272 275 272 274 277 280 285 289 292 295 299 300 299 298 299 301 305 307 308 307
230 229 232 234 234 234 236 238 241 245 246 249 252 256 258 259 259 260 261 261 263 265 266 266 269 272 272 270 273 278 282 287 290 293 296 297 296 295 295 297 301 303 305 305
230 231 233 234 233 234 236 238 241 245 247 249 253 255 257 259 260 258 257 258 262 265 267 269 269 270 273 274 273 274 278 284 289 293 294 295 294 294 294 296 298 300 302 303
231 232 234 235 236 237 239 242 242 245 247 248 252 254 255 258 259 257 259 259 263 266 268 269 268 274 273 274 278 280 280 286 289 291 292 293 293 294 295 296 298 299 300 301
233 235 237 238 239 240 241 242 243 246 247 248 252 254 254 255 257 257 258 259 261 264 267 270 272 273 275 275 279 280 280 284 288 288 289 290 290 291 292 293 295 298 299 300
234 236 238 240 242 242 242 242 243 245 246 250 253 255 255 254 254 254 255 257 260 263 266 269 273 275 276 275 279 279 278 283 287 289 289 289 289 290 289 291 292 295 296 297
236 240 242 243 244 244 243 244 244 245 247 250 252 254 256 255 254 254 257 257 259 262 266 269 272 273 274 277 277 276 278 281 284 286 288 289 289 290 290 290 291 294 296 297
237 240 242 243 244 246 245 243 245 246 248 250 251 253 256 255 254 255 256 258 261 265 268 270 271 271 272 275 276 277 279 281 282 284 285 287 288 288 289 290 290 292 294 295
238 240 242 244 244 246 245 246 247 248 250 250 252 254 256 257 257 256 256 259 261 264 267 269 270 271 273 274 274 274 278 281 281 282 282 284 285 286 287 287 289 290 291 293
239 240 243 244 245 246 247 247 248 248 249 250 252 253 255 258 260 259 260 260 262 263 266 267 267 268 269 271 272 274 277 279 280 280 280 281 284 285 285 286 289 289 289 291
238 240 241 243 244 245 248 249 250 250 250 252 254 255 257 260 261 260 259 259 260 262 265 264 265 266 267 269 271 273 275 276 277 279 278 280 282 284 284 286 289 290 289 290
237 238 239 243 244 246 248 249 250 251 252 253 255 258 260 261 261 259 259 258 259 262 264 264 266 267 267 268 269 272 273 274 275 277 278 280 282 283 284 285 287 289 290 289
234 237 240 243 244 247 250 252 252 252 252 254 255 258 260 261 260 258 259 260 261 262 264 265 266 268 269 269 269 270 271 273 275 277 277 278 280 282 282 283 285 286 288 287
237 239 240 242 245 248 251 252 252 252 253 255 256 258 260 262 262 259 259 259 260 262 265 265 266 267 267 268 269 269 270 272 275 276 277 279 280 280 281 282 284 286 288 288
240 242 245 245 247 249 251 252 252 254 255 255 255 257 261 262 263 262 259 259 259 262 265 266 265 264 266 268 267 267 270 271 273 275 276 278 280 280 282 283 285 286 287 288
244 244 245 247 250 251 252 253 256 256 257 258 260 260 262 261 260 262 262 262 261 263 265 264 264 263 264 266 268 269 271 272 274 276 277 279 280 282 283 285 286 286 287 288
247 247 248 249 249 252 253 255 259 259 259 260 261 261 260 260 261 261 262 263 262 261 261 261 262 265 268 268 269 271 272 273 275 277 278 279 280 281 282 284 285 286 288 289
246 248 250 250 249 251 253 255 259 261 263 263 264 262 260 262 263 263 262 263 264 264 262 262 264 265 266 267 269 270 272 273 274 275 277 278 278 279 281 283 286 287 287 288
248 249 249 250 251 252 255 259 262 264 265 267 267 265 264 266 266 265 265 265 265 266 266 264 265 266 266 267 269 270 271 271 273 274 275 277 279 280 281 283 285 287 287 288
248 249 251 254 256 256 258 261 265 266 266 267 267 266 266 266 266 266 267 267 266 266 267 266 265 266 267 268 269 271 271 270 272 274 276 277 279 281 282 284 285 287 288 289
249 252 254 256 258 260 261 263 265 267 267 266 267 265 265 267 268 269 270 270 268 266 267 267 266 265 266 267 268 269 270 272 274 276 278 279 280 282 283 284 285 287 288 289
254 255 256 259 260 262 264 266 267 268 268 269 270 269 268 268 268 269 270 270 270 268 267 267 266 267 268 269 269 270 271 273 276 277 278 280 281 283 285 286 287 288 288 289
257 258 259 261 264 266 267 268 269 271 272 272 272 271 271 271 271 272 272 272 271 268 267 267 268 268 268 268 269 271 273 274 275 277 279 281 283 284 285 287 288 289 289 289
259 261 263 265 267 268 269 270 270 271 273 274 273 273 274 274 274 274 275 274 272 271 269 268 269 269 269 269 270 272 274 276 277 278 280 282 283 284 285 285 287 288 289 290
267 267 266 266 267 267 269 272 273 274 275 275 276 276 278 280 281 280 280 278 274 273 272 271 271 271 271 272 272 272 274 276 277 278 279 282 283 283 284 285 287 288 289 290
Height
5841 5846 5851 5855 5859 5862 5865 5869 5872 5875 5878 5882 5884 5885 5887 5888 5888 5889 5889 5890 5890 5890 5890 5890 5890 5890 5890 5889 5889 5888 5887 5886 5885 5884 5883 5882 5880 5879 5877 5876 5875 5873 5871 5869
5834 5839 5844 5848 5852 5856 5860 5863 5866 5870 5873 5876 5879 5881 5882 5883 5884 5885 5885 5886 5886 5886 5886 5886 5886 5886 5886 5886 5885 5884 5884 5883 5881 5880 5879 5878 5876 5875 5873 5872 5870 5869 5867 5865
5828 5833 5837 5840 5845 5850 5854 5857 5861 5864 5869 5871 5873 5875 5877 5878 5879 5880 5880 5881 5881 5882 5882 5882 5882 5882 5881 5881 5881 5880 5879 5878 5877 5876 5875 5873 5872 5871 5869 5868 5866 5864 5863 5861
5822 5827 5830 5837 5840 5844 5848 5852 5855 5859 5863 5866 5868 5870 5871 5873 5874 5874 5875 5876 5876 5877 5877 5877 5876 5876 5876 5876 5875 5875 5874 5874 5873 5871 5870 5868 5867 5866 5865 5863 5861 5860 5858 5856
5816 5819 5824 5830 5833 5837 5841 5845 5849 5853 5856 5859 5862 5864 5866 5867 5868 5869 5869 5870 5871 5871 5871 5871 5871 5872 5871 5871 5869 5869 5869 5869 5868 5866 5865 5863 5862 5861 5859 5858 5856 5854 5853 5851
5809 5813 5817 5824 5828 5831 5836 5839 5843 5846 5849 5852 5855 5857 5860 5861 5862 5863 5864 5864 5865 5865 5865 5865 5865 5866 5865 5865 5863 5863 5864 5863 5862 5861 5859 5858 5857 5855 5854 5853 5851 5849 5847 5845
5803 5807 5811 5817 5821 5825 5830 5833 5837 5839 5842 5845 5848 5851 5853 5854 5856 5857 5858 5858 5859 5859 5859 5860 5860 5860 5860 5859 5858 5858 5857 5857 5856 5855 5853 5852 5851 5850 5849 5847 5845 5843 5841 5839
5798 5801 5807 5811 5814 5818 5822 5825 5829 5832 5835 5838 5841 5843 5845 5847 5849 5850 5851 5852 5852 5853 5853 5853 5853 5853 5853 5852 5852 5850 5850 5850 5849 5849 5847 5846 5845 5843 5842 5840 5838 5837 5835 5833
5793 5798 5801 5804 5807 5811 5814 5818 5821 5824 5827 5830 5833 5835 5837 5839 5841 5843 5844 5845 5845 5846 5846 5846 5846 5846 5846 5846 5844 5844 5843 5843 5843 5842 5840 5839 5838 5837 5835 5833 5832 5830 5828 5826
5787 5790 5794 5797 5800 5804 5807 5810 5813 5817 5820 5822 5825 5828 5830 5831 5833 5834 5836 5837 5837 5838 5838 5838 5838 5838 5838 5838 5837 5837 5836 5836 5835 5834 5833 5832 5831 5830 5828 5826 5825 5823 5821 5819
5780 5784 5787 5790 5794 5797 5800 5803 5806 5809 5812 5815 5817 5819 5821 5823 5824 5825 5827 5828 5829 5829 5830 5830 5830 5830 5830 5830 5830 5829 5829 5828 5827 5826 5825 5824 5823 5822 5820 5819 5817 5815 5813 5811
5774 5778 5781 5784 5787 5791 5794 5796 5799 5802 5804 5807 5809 5811 5812 5814 5815 5816 5817 5818 5819 5820 5821 5821 5821 5821 5821 5821 5821 5821 5820 5819 5819 5817 5817 5816 5815 5814 5812 5810 5809 5807 5805 5803
5767 5770 5774 5777 5781 5784 5786 5789 5792 5794 5797 5799 5801 5802 5804 5805 5806 5807 5807 5809 5810 5810 5811 5812 5812 5812 5813 5813 5812 5812 5811 5810 5809 5808 5807 5807 5806 5805 5804 5802 5800 5798 5797 5795
5760 5763 5767 5771 5774 5777 5779 5782 5784 5786 5789 5791 5792 5794 5795 5796 5797 5798 5798 5799 5801 5801 5802 5802 5803 5803 5803 5803 5803 5802 5802 5801 5800 5799 5798 5798 5797 5796 5795 5794 5792 5790 5789 5787
5754 5757 5761 5764 5767 5770 5773 5775 5777 5779 5781 5782 5784 5785 5786 5787 5788 5789 5790 5790 5792 5792 5793 5793 5793 5793 5793 5793 5793 5793 5792 5792 5792 5791 5790 5789 5788 5787 5785 5785 5783 5782 5780 5778
5748 5751 5755 5758 5761 5763 5765 5767 5769 5770 5772 5774 5775 5776 5777 5778 5779 5779 5781 5782 5782 5783 5784 5784 5784 5784 5783 5783 5783 5783 5783 5783 5783 5782 5781 5780 5779 5778 5777 5776 5774 5773 5772 5770
5743 5746 5749 5751 5754 5756 5758 5760 5761 5762 5764 5765 5766 5767 5769 5769 5770 5771 5771 5772 5772 5773 5774 5774 5774 5774 5774 5774 5774 5774 5774 5774 5774 5773 5772 5771 5770 5769 5768 5767 5766 5764 5763 5761
5737 5740 5742 5745 5747 5749 5751 5752 5753 5754 5756 5757 5758 5758 5759 5760 5760 5761 5761 5761 5763 5763 5764 5764 5764 5765 5765 5765 5765 5765 5765 5765 5765 5764 5764 5763 5762 5761 5759 5758 5757 5756 5754 5753
5732 5734 5736 5738 5740 5742 5744 5745 5746 5747 5748 5749 5749 5750 5750 5751 5751 5751 5752 5753 5753 5754 5754 5754 5755 5756 5756 5756 5756 5756 5756 5756 5756 5755 5755 5754 5753 5752 5751 5749 5748 5747 5745 5744
5727 5729 5730 5732 5733 5735 5737 5738 5739 5740 5740 5740 5741 5742 5742 5742 5742 5742 5742 5743 5743 5743 5744 5744 5745 5745 5746 5746 5746 5746 5746 5746 5746 5746 5745 5745 5744 5743 5742 5741 5740 5738 5736 5734
5722 5724 5725 5726 5727 5729 5730 5731 5731 5732 5732 5732 5733 5733 5733 5733 5733 5733 5733 5734 5734 5733 5733 5734 5735 5735 5736 5736 5736 5736 5736 5737 5736 5736 5736 5735 5735 5734 5733 5732 5730 5729 5727 5725
5717 5718 5719 5720 5721 5722 5723 5723 5724 5724 5724 5724 5725 5725 5725 5725 5725 5725 5725 5725 5724 5724 5724 5724 5725 5726 5726 5726 5726 5727 5727 5727 5727 5726 5726 5726 5725 5724 5723 5722 5721 5719 5717 5715
5711 5712 5714 5714 5715 5716 5716 5716 5716 5717 5717 5717 5716 5716 5716 5717 5717 5717 5717 5716 5715 5715 5716 5716 5716 5717 5717 5717 5717 5718 5718 5718 5718 5717 5717 5716 5715 5714 5713 5712 5710 5709 5706 5705
5706 5707 5708 5709 5709 5710 5710 5710 5710 5710 5709 5709 5709 5709 5709 5709 5708 5708 5708 5708 5707 5707 5707 5707 5707 5707 5708 5708 5709 5708 5709 5709 5709 5708 5707 5706 5705 5704 5703 5702 5700 5698 5697 5695
5701 5701 5702 5703 5703 5703 5703 5703 5703 5702 5702 5702 5701 5701 5701 5700 5700 5700 5699 5699 5698 5698 5698 5698 5698 5699 5699 5699 5700 5700 5699 5699 5699 5698 5697 5697 5695 5694 5693 5692 5690 5689 5687 5685
5696 5696 5696 5696 5696 5696 5696 5696 5696 5696 5696 5695 5695 5694 5694 5693 5692 5691 5690 5690 5689 5689 5689 5689 5689 5689 5690 5690 5690 5690 5690 5690 5689 5688 5688 5687 5686 5685 5683 5682 5681 5679 5678 5676
5690 5690 5690 5690 5690 5691 5691 5691 5690 5690 5690 5689 5689 5688 5687 5686 5684 5683 5682 5681 5681 5681 5680 5680 5680 5680 5681 5681 5681 5680 5680 5680 5680 5679 5678 5678 5676 5675 5674 5673 5672 5670 5668 5667